HST, 20580

Orbit data source: Space-Track

The Hubble Space Telescope is a large observatory located in Earth's orbit that has transformed the field of astronomy. Launched in 1990, Hubble has made significant contributions to all domains of astronomy, such as determining the universe's age, the existence of dark energy, and the rate of its expansion. The telescope’s high-resolution images provide detailed and precise views of distant galaxies, nebulae, and star clusters, establishing it as one of the most important telescopes in the history of astronomy.

Not visible in the next 10 days
Identifier
20580, 1990-037B
Orbit
LEO
Country
Flag of USUS
Related business
Manufacturer
LMSC
Mission
Operational Civil Astronomy
Bus & Motor
HST, Unknown motor
Mass
10,843 kg wet, 7,547 kg dry
Launch date (UTC)
1990-04-24 (36 years ago)
Launch vehicle
SPACE SHUTTLE
Launch site
Air Force Eastern Test Range (AFETR)
Object type
Payload
Rocket body
Debris
Shape & HBR
Cyl + 2 Pan, 8.4 m
Radar Cross Section
51.502 m², Large (>1 m²)

Expand to show TLE details & history
Last TLE update: 10 hours ago

TLE from 10 hours ago
0 HST
1 20580U 90037B   26126.02023371  .00007274  00000-0  23343-3 0  9997
2 20580  28.4765   8.6571 0002097  40.3049 319.7702 15.30297634782101
Epoch: 2026-05-06T00:29Z
TLE epoch observation values (Epoch: 2026-05-06T00:29:08.192Z)
Latitude
-0.00002°
Longitude
137.4862°
Altitude
472.08 km
Speed
7.633 km/s
True Right ascension
00h 34m 37s
True Declination
0° 00' 00"
Sunlit
Object was in daylight at epoch
Visualization orbit readout
Latitude
Unknown
Longitude
Unknown
Altitude
Unknown
Speed
Unknown
Apparent Right ascension
Unknown
Apparent Declination
Unknown
Sunlit
N/A
Visualization observer readout
Local Sidereal Time
18:54:32
Azimuth
Unknown
Elevation
Unknown
Doppler factor
Unknown
Orbital elements
Apogee altitude
480.603 km
Perigee altitude
477.727 km
Semi-major axis
6,857.302 km
Eccentricity
0.00021
Inclination
28.4765°
RAAN
8.6571°
Arg. of periapsis
40.3049°
True anomaly
319.75468°
Mean anomaly
319.7702°
Eccentric anomaly
319.76244°
Mean motion
3.8222 °/min
Orbital period
94.19 mins
BSTAR
0.00023343
Loading maneuver chart data...
Computing Atmospheric mass density...
Loading historical data...
Loading historical data...
Loading historical data...
Loading historical data...
Loading historical data...
Loading historical data...
Loading historical data...
Other satellites on launch #37 in the year 1990 (1990-04-24 UTC)

Documentation

Showing up to 5 results
|